Startseite
Über Mich
AHP4
Galerie
Sehschlangen
Tourenbuch
Bookmarks
Elektronik
Bewertung
Geschichten
[Tagesmessung] [Jahreswerte] [Information]

Messwerte vom 02.04.2022

Die letzten Messwerte von 23:58:47 Uhr:
KategorieMesswert
Temperatur [°C]-2
Luftdruck [mBar]1003
Sonneneinstrahlung0
Wind [km/h]0 aus Nordost
Niederschlag [l/m²]0
rel.Luftfeucht.53.3%
CO2 [ppm]638

Diagramme
Messwerte vom 02.04.2022
Tagesaggregation
KategorieMinimumMaximumSchnittSumme
Temperatur [°C]-262.0042
Luftdruck [mBar]9951004998.7938
Sonneneinstrahlung238111.0354
Wind [km/h]23
rF [%]4781.961.46
Niederschlag [l/m²]0
CO2 [ppm]399644473.0
Einordnung alsFrosttag
Kalter Tag

Messungen an benachbarten Tagen: Zur Jahresaggregation 2022
Tabelle aller Messwerte
UhrzeitTemperatur [°C]Luftdruck [mBar]SonneWind [km/h]RichtungRegen [l/m²]rF [%]CO2 [ppm]
00:01:50 1 995 0 2 NW 0 62.1 565
00:04:46 1 995 0 3 NO 0 62.3 557
00:07:46 1 995 0 8 N 0 62.2 553
00:10:45 1 995 0 6 N 0 62.7 556
00:13:45 1 995 0 8 NO 0 62.8 556
00:16:45 1 995 0 3 N 0 62.4 548
00:19:44 1 995 0 4 0 62.8 550
00:22:47 1 995 0 4 SW 0 63.2 554
00:25:47 1 995 0 4 SO 0 63.3 568
00:28:46 1 995 0 10 O 0 63.5 553
00:31:47 1 995 0 8 NW 0 63.7 549
00:34:45 1 995 0 7 NO 0 63.7 547
00:37:47 1 995 0 1 NO 0 64.3 545
00:40:44 1 995 0 1 N 0 64.3 550
00:43:46 1 995 0 4 O 0 64.4 553
00:46:45 1 996 0 14 NO 0 64.3 554
00:49:44 1 995 0 16 0 64.7 553
00:52:45 1 995 0 4 N 0 64.7 545
00:55:44 1 995 0 4 S 0 64.9 536
00:58:47 1 996 0 19 N 0 65 544
01:01:44 1 995 0 4 N 0 65 544
01:04:48 1 996 0 5 N 0 65.2 548
01:07:47 1 996 0 2 NO 0 65.4 544
01:10:46 1 995 0 7 NW 0 65.9 547
01:13:48 1 995 0 6 SO 0 65.9 536
01:16:44 1 995 0 6 N 0 66.1 536
01:19:48 1 996 0 4 SW 0 66.6 538
01:22:47 1 995 0 2 O 0 66.9 545
01:25:45 1 995 0 4 O 0 66.7 545
01:28:47 1 995 0 2 N 0 66.8 544
01:31:48 1 996 0 5 O 0 67 542
01:34:45 1 995 0 4 NW 0 67 542
01:37:46 1 995 0 2 NO 0 67 550
01:40:46 1 995 0 7 NO 0 67.4 544
01:43:46 1 996 0 9 NW 0 67.6 542
01:46:46 1 995 0 3 NW 0 67.8 536
01:49:46 1 996 0 4 N 0 67.6 536
01:52:45 1 996 0 0 O 0 67.8 536
01:55:49 1 996 0 5 NW 0 68.2 536
01:58:44 1 995 0 3 O 0 68.3 535
02:01:49 1 995 0 2 SO 0 68.6 530
02:04:48 1 996 0 7 NW 0 68.6 527
02:07:47 1 996 0 3 NO 0 68.6 539
02:10:46 1 995 0 4 N 0 68.6 536
02:13:49 1 996 0 5 NW 0 68.6 533
02:16:47 1 995 0 0 SO 0 68.5 536
02:19:45 1 995 0 7 NW 0 68.1 527
02:22:44 1 996 0 6 N 0 67.9 521
02:25:46 1 995 0 6 SO 0 67.9 517
02:28:47 1 996 0 4 NO 0 68.1 519
02:31:47 1 995 0 5 NO 0 68 524
02:34:46 1 995 0 3 N 0 68 528
02:37:47 1 996 0 3 SO 0 68.1 530
02:40:47 1 995 0 5 SO 0 68 528
02:43:47 1 995 0 5 W 0 68.2 521
02:46:47 1 995 0 6 0 68.3 521
02:49:46 1 995 0 5 O 0 68.5 524
02:52:48 1 996 0 6 N 0 68.3 522
02:55:50 1 995 0 4 SO 0 68.3 521
02:58:47 1 995 0 6 W 0 68.5 524
03:01:49 1 996 0 12 NW 0 68.7 521
03:04:47 1 996 0 5 O 0 68.8 522
03:07:45 1 996 0 1 0 68.9 525
03:10:46 1 995 0 6 N 0 69 518
03:13:47 1 995 0 2 NW 0 69.2 526
03:16:45 1 995 0 2 NO 0 69.3 515
03:19:46 1 996 0 8 N 0 69.4 519
03:22:47 1 995 0 12 N 0 69.4 529
03:25:45 1 996 0 6 N 0 69.4 527
03:28:49 1 996 0 7 NO 0 69.6 521
03:31:47 1 996 0 7 N 0 69.9 518
03:34:45 1 996 0 3 NO 0 70 521
03:37:46 1 995 0 2 NW 0 70.4 521
03:40:46 1 996 0 2 N 0 70.6 512
03:43:47 1 996 0 15 N 0 70.8 520
03:46:47 1 995 0 0 SO 0 71.3 515
03:49:47 0 996 0 6 NO 0 71.6 510
03:52:47 1 995 0 3 NO 0 71.7 506
03:55:47 0 996 0 4 NW 0 71.7 510
03:58:48 0 996 0 2 SO 0 71.8 510
04:01:47 0 996 0 2 NW 0 72 512
04:04:46 0 996 0 1 NW 0 72.3 500
04:07:47 0 995 0 8 N 0 73.2 502
04:10:44 0 997 0 1 O 0 73.5 501
04:13:45 0 996 0 2 O 0 74.4 504
04:16:49 0 995 0 2 NW 0 75.1 498
04:19:47 0 995 0 5 W 0 75.3 498
04:22:47 0 996 0 9 NO 0 75.4 498
04:25:46 0 995 0 5 W 0 75.7 500
04:28:47 0 995 0 2 N 0 76 502
04:31:44 0 995 0 13 0 76.2 507
04:34:45 0 996 0 3 N 0 76.6 506
04:37:46 0 996 0 3 SO 0 76.8 501
04:40:47 0 996 0 13 NW 0 76.9 498
04:43:46 0 996 0 4 S 0 76.8 492
04:46:46 0 996 0 5 O 0 76.8 490
04:49:47 0 996 0 8 NW 0 76.8 500
04:52:47 0 996 0 9 NW 0 77.2 495
04:55:45 0 996 0 5 N 0 77.2 500
04:58:49 0 996 0 7 NW 0 77.1 495
05:01:45 0 996 0 8 N 0 76.9 495
05:04:46 0 996 0 5 N 0 76.9 501
05:07:49 0 996 0 7 NO 0 76.7 498
05:10:46 -1 996 0 3 O 0 76.7 501
05:13:46 -1 996 0 3 SW 0 76.7 499
05:16:45 -1 996 0 2 N 0 76.7 492
05:19:49 -1 996 0 2 NO 0 76.8 489
05:22:48 -1 996 0 6 NO 0 76.8 483
05:25:48 -1 996 0 11 W 0 76.6 486
05:28:47 -1 996 0 10 N 0 76.5 492
05:31:47 -1 996 0 2 NO 0 76.5 494
05:34:45 -1 997 0 7 N 0 76.5 483
05:37:47 -1 996 0 5 NW 0 76.7 485
05:40:46 -1 997 0 7 N 0 76.7 486
05:43:45 -1 997 0 5 NO 0 77.1 483
05:46:46 -1 997 0 7 N 0 77.3 486
05:49:48 -1 996 0 4 N 0 77.5 498
05:52:45 -1 997 0 5 NW 0 77.6 495
05:55:46 -1 997 0 8 NW 0 77.9 492
05:58:48 -1 997 0 5 N 0 78.3 498
06:01:48 -1 997 0 5 SO 0 78.6 497
06:04:48 -1 998 0 13 N 0 78.7 489
06:07:46 -1 997 0 6 S 0 78.8 489
06:10:48 -1 996 0 5 NO 0 78.9 480
06:13:49 -1 998 0 2 SW 0 79.2 481
06:16:46 -1 997 0 9 SW 0 79.5 495
06:19:44 -1 997 0 1 S 0 79.9 495
06:22:47 -1 997 0 2 SW 0 80.2 498
06:25:48 -1 997 3 3 S 0 80.6 498
06:28:49 -1 997 5 6 NW 0 80.9 498
06:31:46 -1 997 8 4 N 0 81.3 501
06:34:48 -1 997 13 5 SO 0 81.5 486
06:37:46 -1 998 19 3 O 0 81.3 486
06:40:49 -1 998 27 1 NO 0 81.6 490
06:43:48 -1 998 36 2 NO 0 81.7 495
06:46:48 -1 998 46 6 N 0 81.6 489
06:49:47 -1 997 56 5 W 0 81.8 492
06:52:47 -1 998 67 5 N 0 81.8 498
06:55:46 -1 997 78 1 O 0 81.9 501
06:58:48 -1 998 89 0 NW 0 81.8 505
07:01:48 -1 998 99 2 W 0 81.7 510
07:04:47 -1 998 108 3 N 0 81.6 507
07:07:47 -1 998 117 2 N 0 81.6 498
07:10:48 -1 998 126 2 O 0 81.7 495
07:13:46 -1 998 134 6 O 0 81.6 500
07:16:46 -1 998 142 3 SO 0 81.5 509
07:19:46 -1 998 149 4 N 0 81.2 512
07:22:45 -1 998 153 1 O 0 81.2 506
07:25:47 -1 998 157 3 N 0 81.2 504
07:28:45 -1 998 160 6 0 81.1 516
07:31:47 -1 998 163 3 NW 0 80.9 527
07:34:49 -1 998 167 8 NO 0 80.5 521
07:37:48 -1 998 171 3 SW 0 80 518
07:40:48 -1 998 175 8 NO 0 79.7 521
07:43:50 -1 998 178 4 O 0 79.4 549
07:46:47 -1 998 181 2 O 0 79.1 548
07:49:49 -1 998 184 4 SO 0 79 527
07:52:48 -1 998 187 17 NW 0 78.9 519
07:55:47 -1 998 190 6 NO 0 78.1 527
07:58:49 0 998 192 1 W 0 78 538
08:01:49 0 998 195 1 N 0 77.7 547
08:04:48 0 998 158 4 NO 0 77.5 563
08:07:48 0 998 198 7 N 0 76.9 407
08:10:48 0 998 199 2 S 0 76.6 404
08:13:48 0 998 201 0 NO 0 76.5 405
08:16:47 0 998 202 1 SO 0 76.2 407
08:19:51 0 998 203 1 SW 0 76 408
08:22:46 0 998 204 1 N 0 75.6 437
08:25:45 0 998 204 2 S 0 74.7 440
08:28:49 1 998 205 6 NW 0 74.4 436
08:31:48 1 998 205 1 NW 0 73.7 439
08:34:50 1 998 206 2 NW 0 73.7 445
08:37:48 1 998 206 8 NO 0 73.3 445
08:40:46 1 998 207 4 N 0 72.6 445
08:43:48 1 998 207 2 W 0 72.8 443
08:46:50 1 998 208 6 SO 0 72 444
08:49:48 1 998 209 7 NO 0 71.5 447
08:52:47 1 998 210 3 S 0 71.4 454
08:55:49 1 998 210 8 N 0 71.6 445
08:58:50 1 998 211 23 W 0 71 424
09:01:46 1 998 212 8 N 0 70.3 410
09:04:46 1 998 212 6 O 0 70.1 436
09:07:49 2 998 213 10 NW 0 70 437
09:10:45 2 998 213 4 S 0 70.1 433
09:13:48 2 998 214 8 SO 0 70.2 442
09:16:47 2 998 214 4 N 0 69.8 437
09:19:48 2 998 215 13 NO 0 68.6 427
09:22:50 2 999 215 7 NW 0 68.5 425
09:25:47 2 998 215 7 N 0 68.4 422
09:28:47 2 998 216 5 0 68.1 410
09:31:50 2 998 216 2 NW 0 68 407
09:34:49 2 998 216 4 W 0 68 407
09:37:46 2 998 217 10 N 0 67.9 399
09:40:48 2 999 217 14 SW 0 67.2 404
09:43:49 2 998 216 1 NO 0 66.6 407
09:46:47 2 998 216 9 W 0 68 404
09:49:50 2 999 216 10 S 0 66.9 407
09:52:47 2 999 215 5 N 0 66.1 407
09:55:49 2 999 215 5 NW 0 66.3 404
09:58:48 2 998 215 11 NO 0 66.7 407
10:01:46 2 998 215 6 O 0 66.5 401
10:04:47 2 999 215 2 S 0 66 407
10:07:47 2 999 215 5 O 0 66.5 404
10:10:49 2 999 215 2 SW 0 66.1 404
10:13:50 2 999 215 3 W 0 66.2 404
10:16:46 3 999 216 3 O 0 65.9 407
10:19:46 3 999 216 6 O 0 65.6 407
10:22:45 2 999 217 4 O 0 65.3 404
10:25:48 2 998 218 10 NW 0 64.3 407
10:28:47 2 999 218 13 NO 0 64.4 404
10:31:47 2 998 219 8 N 0 64.5 407
10:34:49 2 999 219 8 NO 0 64 407
10:37:47 2 999 220 7 SO 0 63.9 407
10:40:50 3 998 220 4 SO 0 64.3 404
10:43:47 3 999 220 7 N 0 64.2 404
10:46:47 3 999 220 7 NW 0 63.8 404
10:49:49 3 998 220 9 N 0 63.6 406
10:52:48 3 999 220 8 W 0 63.1 404
10:55:48 3 999 220 4 N 0 62.8 407
10:58:46 3 999 220 3 SW 0 63.1 404
11:01:46 3 999 220 6 N 0 64.4 406
11:04:49 3 999 220 13 NW 0 62.6 404
11:07:48 3 998 221 11 O 0 61.2 404
11:10:48 3 999 221 6 NO 0 61.5 407
11:13:46 3 999 222 6 NW 0 61.7 404
11:16:49 3 999 222 3 NW 0 61.8 404
11:19:48 3 999 222 9 NW 0 62 404
11:22:48 3 1000 222 14 SW 0 61.3 404
11:25:45 3 999 222 8 N 0 61.1 401
11:28:46 3 999 220 5 N 0 61.6 407
11:31:47 4 999 222 11 NW 0 61.1 407
11:34:48 4 999 223 3 W 0 60.5 408
11:37:44 4 999 225 4 O 0 60.6 404
11:40:47 4 999 224 9 W 0 60.2 405
11:43:47 4 999 224 3 NO 0 60.1 407
11:46:46 4 999 223 8 N 0 60.5 404
11:49:46 4 999 223 14 O 0 59.5 406
11:52:47 4 999 224 14 NO 0 58.1 404
11:55:45 4 1000 225 6 O 0 56.7 407
11:58:47 4 999 221 9 NO 0 56.7 404
12:01:47 4 1000 214 6 SW 0 57.1 406
12:04:49 4 999 214 5 NW 0 58.1 404
12:07:46 4 999 217 4 N 0 58.4 407
12:10:48 4 999 219 9 NW 0 59.2 407
12:13:46 4 999 219 10 N 0 58.3 404
12:16:50 4 999 222 5 N 0 57.6 407
12:19:47 4 999 223 2 S 0 57.2 401
12:22:52 4 999 222 5 NO 0 56.4 404
12:25:47 4 998 215 10 N 0 56.6 406
12:28:49 4 999 216 6 N 0 56.6 401
12:31:46 4 999 223 7 0 56.6 407
12:34:46 4 999 226 7 N 0 54.7 407
12:37:49 4 999 226 9 W 0 53.6 404
12:40:49 4 999 226 10 O 0 53.6 404
12:43:48 5 999 226 6 NW 0 53 406
12:46:46 5 999 226 9 O 0 51.6 407
12:49:48 5 999 229 8 NW 0 50.6 405
12:52:46 5 999 230 4 NO 0 51.2 407
12:55:47 5 999 230 6 NO 0 51 407
12:58:46 5 999 229 6 N 0 50.1 404
13:01:49 5 999 225 12 0 50.6 407
13:04:48 5 999 223 4 NW 0 50.6 404
13:07:47 5 999 227 8 N 0 50.7 407
13:10:49 5 999 226 6 NO 0 50.2 407
13:13:48 5 999 222 4 NW 0 49.4 407
13:16:46 5 999 213 11 O 0 49.9 404
13:19:47 5 999 206 7 NW 0 49.7 408
13:22:47 4 998 210 12 N 0 51 406
13:25:47 5 999 217 8 NW 0 51.7 401
13:28:44 4 999 218 9 N 0 51.4 406
13:31:47 4 999 217 7 N 0 50.9 404
13:34:45 5 999 215 1 N 0 51 404
13:37:47 5 999 216 12 NW 0 52.4 404
13:40:47 5 999 221 6 N 0 51.1 405
13:43:45 5 999 224 9 N 0 50.9 404
13:46:45 5 999 225 2 N 0 51.6 404
13:49:48 5 999 224 3 NW 0 52.2 404
13:52:47 5 1000 225 11 S 0 51.8 407
13:55:48 5 999 226 2 O 0 51.7 407
13:58:48 5 999 228 11 NW 0 52 404
14:01:46 5 999 231 9 N 0 50.7 404
14:04:48 5 999 231 17 SW 0 50.8 407
14:07:49 5 999 224 7 NW 0 50.3 406
14:10:49 5 999 217 6 SO 0 50.3 404
14:13:47 5 999 219 3 N 0 50.5 407
14:16:45 5 999 227 14 N 0 50 407
14:19:49 5 999 229 10 NW 0 49.5 405
14:22:47 5 999 228 4 N 0 47.8 404
14:25:48 5 999 233 8 NW 0 47.5 404
14:28:49 6 999 232 3 SO 0 48 404
14:31:46 6 999 231 6 N 0 47.6 407
14:34:48 6 999 226 4 NO 0 47 404
14:37:46 6 999 223 13 N 0 47.3 407
14:40:47 5 1000 216 10 NO 0 47.5 407
14:43:47 5 999 217 13 NW 0 48.6 407
14:46:49 5 998 221 10 NO 0 49.8 407
14:49:48 5 999 225 4 NO 0 50 407
14:52:47 5 999 224 7 NW 0 50.4 406
14:55:47 5 999 224 5 NW 0 50.1 404
14:58:48 5 999 226 8 NO 0 49.4 404
15:01:49 5 999 226 6 NW 0 48.7 406
15:04:48 5 999 225 10 SW 0 48.8 409
15:07:47 5 1000 220 5 NO 0 48.5 407
15:10:47 5 999 215 7 NO 0 49.2 404
15:13:49 5 999 214 7 O 0 49 404
15:16:49 5 1000 216 4 N 0 49 407
15:19:48 5 1000 217 6 NO 0 49.3 407
15:22:47 5 1000 216 3 W 0 49.7 407
15:25:46 5 1001 217 8 O 0 49.8 404
15:28:49 5 1000 219 9 NW 0 50.4 407
15:31:49 5 999 222 17 N 0 50.4 407
15:34:49 5 1000 222 4 W 0 49.8 406
15:37:48 5 999 225 7 NW 0 49.6 406
15:40:48 5 999 229 10 N 0 50.7 407
15:43:49 5 1000 229 12 NO 0 50.7 407
15:46:46 5 1000 231 3 NO 0 49.3 405
15:49:48 5 1000 238 7 NO 0 49.2 404
15:52:47 5 1000 222 11 NW 0 48.7 407
15:55:50 5 999 216 2 NO 0 48.2 407
15:58:46 5 999 217 2 NO 0 49.7 405
16:01:49 5 1000 217 1 N 0 52 404
16:04:47 5 1000 214 4 N 0 50.4 407
16:07:47 5 999 215 3 SW 0 50.4 406
16:10:46 5 1000 217 0 O 0 50.6 407
16:13:48 5 999 222 5 SW 0 51.2 405
16:16:49 5 1000 226 9 NW 0 51.3 407
16:19:47 5 1000 228 7 O 0 50.9 407
16:22:49 5 1000 231 1 NW 0 48.8 407
16:25:47 5 1000 230 6 N 0 48.7 404
16:28:47 5 999 227 9 N 0 48.3 404
16:31:47 5 999 221 10 0 48.8 401
16:34:48 5 999 224 13 N 0 48.5 410
16:37:46 5 999 225 7 W 0 48.1 407
16:40:48 5 1000 228 5 0 49.3 407
16:43:47 5 999 230 3 W 0 49.7 404
16:46:48 5 1000 232 7 NO 0 50 404
16:49:50 6 1000 235 10 NW 0 48.2 407
16:52:49 6 1000 234 3 NW 0 47.6 405
16:55:47 5 1000 226 6 W 0 47.9 407
16:58:49 5 1001 217 5 NW 0 48.5 407
17:01:47 5 999 206 3 0 49.2 404
17:04:48 5 999 199 5 SW 0 50 407
17:07:47 5 999 196 6 NW 0 51.4 404
17:10:47 5 999 197 5 N 0 51.7 407
17:13:45 5 1001 204 3 W 0 52.2 407
17:16:45 5 999 212 5 N 0 52.3 404
17:19:47 5 1000 219 4 SO 0 52.1 404
17:22:46 5 999 225 4 O 0 52.7 407
17:25:48 5 1000 231 2 NW 0 52.2 404
17:28:46 5 1000 233 4 O 0 52.2 404
17:31:48 5 999 232 2 O 0 51.9 404
17:34:46 5 1000 200 6 N 0 52.3 407
17:37:45 5 1000 185 4 N 0 51.2 407
17:40:47 5 1000 178 5 N 0 52.3 407
17:43:49 4 1000 170 3 SW 0 53 404
17:46:46 4 1001 165 6 N 0 53.8 407
17:49:46 4 1000 163 7 N 0 53.5 407
17:52:48 4 1000 165 7 NW 0 53.6 402
17:55:45 4 1000 170 7 N 0 52.9 407
17:58:46 4 999 176 0 NW 0 53.1 405
18:01:48 4 1000 186 5 O 0 53.1 407
18:04:47 4 1001 197 1 NO 0 52.5 404
18:07:47 4 1000 205 0 O 0 52 403
18:10:49 4 1000 217 6 SO 0 52.2 407
18:13:48 4 1000 218 3 O 0 51.5 404
18:16:47 4 1000 211 0 N 0 51.9 405
18:19:47 4 1001 225 3 NW 0 51.6 407
18:22:50 4 1000 170 3 NW 0 51.2 404
18:25:46 4 1001 160 3 N 0 51 406
18:28:48 4 1001 153 5 N 0 52.1 404
18:31:45 4 1001 149 6 SW 0 53.5 404
18:34:50 4 1001 156 2 N 0 55.1 404
18:37:46 4 1001 171 4 NO 0 55.5 406
18:40:46 4 1001 186 8 N 0 55.3 404
18:43:48 4 1000 199 1 NW 0 54.3 407
18:46:47 4 1001 205 7 N 0 54.2 405
18:49:47 4 1001 210 1 N 0 53.1 407
18:52:45 4 1002 213 7 0 53 404
18:55:48 4 1001 207 3 NO 0 52.6 407
18:58:47 4 1001 190 4 NW 0 52.8 407
19:01:47 4 1001 184 4 N 0 52.4 407
19:04:49 4 1001 197 2 NW 0 52.4 404
19:07:47 4 1001 199 5 W 0 52.1 407
19:10:46 4 1001 202 4 N 0 51.7 405
19:13:50 4 1001 121 6 SO 0 51.8 407
19:16:48 4 1001 197 10 N 0 51.8 404
19:19:51 4 1001 182 13 NW 0 51.8 405
19:22:47 4 1002 165 7 NW 0 51.7 404
19:25:46 4 1001 146 9 N 0 52.1 421
19:28:47 4 1002 128 6 N 0 51.7 410
19:31:46 4 1002 118 2 S 0 51.5 402
19:34:46 3 1002 110 0 N 0 52.2 407
19:37:48 3 1001 100 2 SO 0 52.4 410
19:40:46 3 1001 83 1 NO 0 52.8 413
19:43:47 3 1002 65 2 SW 0 52.6 448
19:46:44 3 1001 49 1 N 0 52.6 442
19:49:49 3 1001 41 3 NO 0 52.9 448
19:52:47 3 1002 38 4 N 0 53.1 448
19:55:48 3 1002 36 2 N 0 52.8 459
19:58:48 3 1002 34 8 NW 0 52.6 462
20:01:48 3 1002 33 2 O 0 52.5 462
20:04:48 3 1002 28 7 N 0 52 469
20:07:49 3 1002 21 2 NW 0 51.3 468
20:10:46 3 1002 14 6 N 0 51.5 478
20:13:47 3 1002 10 0 W 0 51.5 475
20:16:47 3 1002 6 3 NW 0 51.9 478
20:19:47 2 1002 4 6 0 52.3 481
20:22:46 2 1002 3 2 N 0 52.6 483
20:25:46 2 1002 0 5 NW 0 52.8 483
20:28:48 2 1002 0 0 NO 0 53 492
20:31:45 2 1002 0 4 O 0 53.4 498
20:34:46 2 1002 0 1 NO 0 53.5 503
20:37:48 2 1002 0 1 S 0 54 505
20:40:45 2 1002 0 7 0 54.3 497
20:43:47 2 1002 0 1 O 0 54.5 499
20:46:48 2 1002 0 3 NW 0 54.6 507
20:49:49 2 1002 0 2 NW 0 54.8 514
20:52:45 2 1002 0 2 N 0 54.9 521
20:55:46 2 1002 0 2 N 0 55.5 534
20:58:47 2 1002 0 2 W 0 55.8 536
21:01:46 1 1002 0 4 W 0 56.4 533
21:04:46 1 1002 0 6 NW 0 56.5 533
21:07:45 2 1002 0 3 N 0 56.2 536
21:10:49 1 1002 0 2 O 0 55.7 531
21:13:45 1 1002 0 3 0 55.5 542
21:16:46 1 1002 0 1 NW 0 55.5 544
21:19:47 1 1002 0 2 NW 0 55.4 551
21:22:45 1 1002 0 5 N 0 55.4 548
21:25:48 1 1002 0 1 NO 0 55.4 557
21:28:48 1 1002 0 1 NW 0 55.6 556
21:31:48 1 1003 0 3 NW 0 55.7 554
21:34:46 1 1002 0 2 W 0 55.9 556
21:37:46 1 1002 0 0 S 0 56 557
21:40:46 1 1003 0 6 NW 0 56 568
21:43:48 1 1002 0 6 NO 0 56.2 568
21:46:46 0 1002 0 4 N 0 56.4 565
21:49:48 0 1003 0 5 NW 0 56.4 574
21:52:45 1 1003 0 1 N 0 55.3 569
21:55:46 1 1002 0 3 N 0 55 574
21:58:47 1 1003 0 5 NO 0 54.5 580
22:01:47 0 1003 0 2 NW 0 54.5 592
22:04:46 0 1003 0 3 N 0 54.5 585
22:07:47 0 1003 0 2 W 0 53.8 592
22:10:48 0 1003 0 4 W 0 53.8 589
22:13:48 0 1002 0 4 NW 0 53.5 585
22:16:45 0 1002 0 5 W 0 53.4 586
22:19:49 0 1002 0 0 NW 0 53.5 585
22:22:46 0 1002 0 5 N 0 53.2 586
22:25:51 0 1002 0 5 N 0 53 588
22:28:47 0 1003 0 5 N 0 52.9 594
22:31:47 0 1003 0 1 NW 0 52.6 600
22:34:47 0 1002 0 2 N 0 52.7 606
22:37:47 0 1002 0 1 N 0 51.9 609
22:40:46 0 1003 0 4 N 0 52.3 613
22:43:46 0 1003 0 2 NO 0 52.2 612
22:46:46 0 1003 0 0 W 0 51.7 619
22:49:46 0 1003 0 4 NW 0 51.2 623
22:52:47 0 1002 0 0 O 0 50.7 619
22:55:47 -1 1003 0 2 NO 0 50.8 621
22:58:47 -1 1003 0 9 NO 0 50.8 609
23:01:47 -1 1003 0 8 O 0 50.6 606
23:04:47 -1 1003 0 2 N 0 50.5 604
23:07:46 -1 1003 0 1 N 0 50.6 612
23:10:47 -1 1002 0 2 N 0 50.9 616
23:13:48 -1 1003 0 0 NW 0 50.8 624
23:16:47 -1 1003 0 1 N 0 51.1 631
23:19:46 -1 1003 0 2 0 51.2 635
23:22:46 -1 1004 0 4 NW 0 51.3 635
23:25:46 -1 1003 0 1 NO 0 51.2 632
23:28:45 -1 1003 0 0 O 0 51.2 630
23:31:47 -1 1004 0 4 NW 0 51.3 638
23:34:48 -1 1003 0 0 NW 0 51.4 636
23:37:46 -1 1002 0 0 0 51.8 636
23:40:47 -1 1003 0 0 O 0 52.2 642
23:43:46 -1 1003 0 1 NO 0 52 644
23:46:47 -1 1004 0 0 NW 0 52.2 644
23:49:45 -2 1004 0 1 N 0 52.5 644
23:52:47 -2 1003 0 6 NW 0 52.7 638
23:55:46 -2 1003 0 1 NW 0 53.1 638
23:58:47 -2 1003 0 0 NO 0 53.3 638

Letzte Änderung : 22-Jul-2022
Copyright Jens Köhler, Wolfsburg, Obere Dorfstraße 10d